AJ1L Weather Reports


time (UTC)temp
C
wind
direction
speed
KPH
gust
KPH
rain 1hr
cm
rain 24hr
cm
rain mn
cm
humidity
%
barometer
mb
20260505081048 10 220 1.6 6.4 0.00 0.00 0.00 88 1010.7
20260505064728 10 233 3.2 6.4 0.00 0.00 0.00 85 1010.9
20260505063048 10 241 3.2 6.4 0.00 0.00 0.00 85 1011.0
20260505055728 10 243 3.2 12.9 0.00 0.00 0.00 83 1011.1
20260505050728 10 233 3.2 9.7 0.00 0.00 0.00 81 1011.0
20260505041728 11 243 3.2 9.7 0.00 0.00 0.00 79 1011.2
20260505040048 11 238 3.2 9.7 0.00 0.00 0.00 78 1011.1
20260505034408 11 236 3.2 8.0 0.00 0.00 0.00 77 1011.1
20260505022048 12 232 4.8 11.3 0.00 0.00 0.00 73 1011.2
20260505020407 12 228 4.8 11.3 0.00 0.00 0.00 71 1011.2
20260505014727 12 229 4.8 11.3 0.00 0.00 0.00 70 1011.3
20260505013048 12 222 4.8 9.7 0.00 0.00 0.00 68 1011.1
20260505005727 13 237 6.4 17.7 0.00 0.00 0.00 65 1010.5
20260505004048 13 230 6.4 14.5 0.00 0.00 0.00 63 1010.1
20260505002407 13 235 6.4 19.3 0.00 0.00 0.00 60 1009.8
20260505000727 14 217 6.4 16.1 0.00 0.00 0.00 57 1009.4
20260504235048 14 219 4.8 12.9 0.00 0.00 0.00 55 1009.2
20260504231727 16 230 6.4 19.3 0.00 0.00 0.00 49 1008.7
20260504230047 16 218 8.0 17.7 0.00 0.00 0.00 46 1008.4
20260504224407 17 209 6.4 19.3 0.00 0.00 0.00 45 1008.3
20260504222728 17 239 9.7 24.1 0.00 0.00 0.00 44 1008.0
20260504221047 18 234 9.7 24.1 0.00 0.00 0.00 43 1007.9
20260504215407 18 230 8.0 24.1 0.00 0.00 0.00 43 1007.9
20260504213727 18 204 9.7 19.3 0.00 0.00 0.00 43 1007.8
20260504210407 19 217 8.0 19.3 0.00 0.00 0.00 40 1007.7
20260504204727 19 222 8.0 17.7 0.00 0.00 0.00 38 1007.6
20260504203048 19 215 8.0 19.3 0.00 0.00 0.00 37 1007.6
20260504201407 20 200 8.0 19.3 0.00 0.00 0.00 37 1007.5
20260504195727 20 228 9.7 22.5 0.00 0.00 0.00 34 1007.6
20260504194047 21 239 11.3 25.7 0.00 0.00 0.00 31 1007.5
20260504192407 21 241 11.3 25.7 0.00 0.00 0.00 29 1007.4
20260504190727 21 251 11.3 22.5 0.00 0.00 0.00 30 1007.5
20260504185048 21 240 11.3 22.5 0.00 0.00 0.00 29 1007.6
20260504183407 21 249 9.7 27.4 0.00 0.00 0.00 29 1007.8
20260504180047 21 256 9.7 25.7 0.00 0.00 0.00 29 1007.9
20260504172733 20 248 12.9 25.7 0.00 0.00 0.00 29 1007.8
20260504171047 20 260 12.9 30.6 0.00 0.00 0.00 31 1007.9
20260504140726 17 258 9.7 24.1 0.00 0.00 0.00 37 1010.2
20260504110406 7 254 3.2 11.3 0.00 0.00 0.00 60 1011.1